Terug naar catalogus

COSMOS 1754

ActiefNavigatieLEO
NORAD 16764·PAYLOAD·🇷🇺 Russia

Gelanceerd Jun 6, 1986 vanaf Plesetsk Cosmodrome

Loading…

Volgende Passages (komende 24 uur)

TLE

VersSource: Space-Track

Epoch: Sep 14, 2026, 08:28 UTC

1 16764U 86042G   26257.35340211 -.00000008  00000-0  54711-4 0  9996
2 16764  74.0154 108.3090 0020786 237.9877 295.5520 12.52612469666255

Volg COSMOS 1754 in realtime met AllMySat

Download on the App Store